User: anonymous   Login
Location: Hertford
(51.8000°N, 0.0667°W)
Time: 04:06:22
(UTC+00:00)
Language:

Meteor 2-11 Rocket - Orbit

View from above orbital plane
View from above orbital plane
View from above satellite
View from above satellite

Ground track
Ground track

The orbit data is extracted from the following two-line orbital elements,

1 15100U 84072B   20337.43368907  .00000038  00000-0  20397-4 0  9999
2 15100  82.5317 216.1499 0012803  41.8723 318.3415 13.84445605839618
Epoch (UTC): 02 December 2020 10:24:30
Eccentricity: 0.0012803
inclination: 82.5317°
perigee height: 939 km
apogee height: 957 km
right ascension of ascending node: 216.1499°
argument of perigee: 41.8723°
revolutions per day: 13.84445605
mean anomaly at epoch: 318.3415°
orbit number at epoch: 83961

The dashed part of the orbit path shows where the satellite is in the earth's shadow,  

DLR